Morrisville, VT

9:06 AM EDT on May 20, 2018 (GMT -0400)
Morrisville Stowe State

Weather History for KMVL - October, 2013

Change the Weather History Date:

Wednesday, October 9, 2013

  Actual Average Record
Temperature  
Mean Temperature 49 °F 48 °F  
Max Temperature 66 °F 59 °F 80 °F (2011)
Min Temperature 31 °F 37 °F 24 °F (2001)
Degree Days  
Heating Degree Days 16 17  
Month to date heating degree days 86 139  
Since 1 July heating degree days 400 471  
Cooling Degree Days 0 0  
Month to date cooling degree days 0 0  
Year to date cooling degree days 401 265  
Moisture  
Dew Point 34 °F    
Average Humidity 63    
Maximum Humidity 100    
Minimum Humidity 26    
Precipitation  
Precipitation 0.00 in 0.11 in 0.91 in (2017)
Month to date precipitation 0.20 1.02  
Year to date precipitation 33.24 28.15  
Sea Level Pressure  
Sea Level Pressure 30.45 in    
Wind  
Wind Speed 1 mph (South)    
Max Wind Speed 9 mph    
Max Gust Speed 12 mph    
Visibility 6 miles    
Events Fog    
T = Trace of Precipitation, MM = Missing Value Source: NWS Daily Summary

Daily Weather History Graph

Daily Weather History Graph

Search for Another Location

Airport or City:

Astronomy

Oct. 09, 2013 Rise Set
Actual Time 6:58 AM EDT 6:16 PM EDT
Civil Twilight 6:29 AM EDT 6:45 PM EDT
Nautical Twilight 5:55 AM EDT 7:18 PM EDT
Astronomical Twilight 5:21 AM EDT 7:52 PM EDT
Moon 12:00 PM EDT (10/9) 9:38 PM EDT (10/9)
Length of Visible Light 12h 16m
Length of Day
11h 17m
Waxing Crescent, 25% of the Moon is Illuminated
Oct 9
Waxing Crescent
Oct 11
First Quarter
Oct 18
Full
Oct 26
Last Quarter
Nov 3
New

Hourly Weather History & Observations

Time (EDT) Temp. Windchill Dew Point Humidity Pressure Visibility Wind Dir Wind Speed Gust Speed Precip Events Conditions
12:54 AM 34.0 °F - 32.0 °F 92% 30.45 in 10.0 mi Calm Calm - N/A   Partly Cloudy
1:54 AM 33.1 °F - 30.9 °F 92% 30.46 in 9.0 mi Calm Calm - N/A   Mostly Cloudy
2:03 AM 32.0 °F - 30.2 °F 93% 30.44 in 1.5 mi Calm Calm - N/A   Mostly Cloudy
2:08 AM 32.0 °F - 30.2 °F 93% 30.44 in 0.8 mi Calm Calm - N/A   Mist
2:34 AM 33.8 °F - 30.2 °F 87% 30.44 in 1.2 mi Calm Calm - N/A   Overcast
2:52 AM 32.0 °F - 30.2 °F 93% 30.44 in 2.0 mi Calm Calm - N/A   Overcast
2:54 AM 32.0 °F - 30.0 °F 92% 30.46 in 1.8 mi Calm Calm - N/A   Overcast
2:59 AM 30.2 °F - 30.2 °F 100% 30.44 in 0.8 mi Calm Calm - N/A   Mist
3:54 AM 32.0 °F - 30.9 °F 96% 30.47 in 0.2 mi Calm Calm - N/A Fog Fog
4:54 AM 32.0 °F - 30.9 °F 96% 30.49 in 0.2 mi Calm Calm - N/A Fog Fog
5:54 AM 30.9 °F - 30.0 °F 96% 30.50 in 0.5 mi Calm Calm - N/A Fog Light Freezing Fog
6:54 AM 32.0 °F - 30.0 °F 92% 30.51 in 0.2 mi Calm Calm - N/A Fog Fog
7:54 AM 32.0 °F - 30.9 °F 96% 30.53 in 0.2 mi Calm Calm - N/A Fog Fog
8:54 AM 34.0 °F - 34.0 °F 100% 30.52 in 0.2 mi Calm Calm - N/A Fog Fog
9:27 AM 37.4 °F - 37.4 °F 100% 30.48 in 1.2 mi Calm Calm - N/A   Overcast
9:33 AM 37.4 °F 34.9 °F 37.4 °F 100% 30.48 in 3.0 mi SSW 3.5 mph - N/A   Overcast
9:52 AM 41.0 °F 39.0 °F 39.2 °F 93% 30.48 in 10.0 mi SSE 3.5 mph - N/A   Scattered Clouds
9:54 AM 41.0 °F 39.0 °F 39.0 °F 93% 30.51 in 10.0 mi South 3.5 mph - N/A   Partly Cloudy
10:54 AM 52.0 °F - 41.0 °F 66% 30.49 in 10.0 mi Calm Calm - N/A   Clear
11:54 AM 57.9 °F - 39.9 °F 51% 30.48 in 10.0 mi Variable 3.5 mph - N/A   Clear
12:54 PM 62.1 °F - 36.0 °F 38% 30.46 in 10.0 mi Variable 3.5 mph - N/A   Clear
1:54 PM 63.0 °F - 28.0 °F 27% 30.43 in 10.0 mi Variable 3.5 mph - N/A   Clear
2:54 PM 64.9 °F - 30.0 °F 27% 30.41 in 10.0 mi Calm Calm - N/A   Clear
3:54 PM 64.9 °F - 28.9 °F 26% 30.39 in 10.0 mi Calm Calm - N/A   Clear
4:54 PM 64.0 °F - 33.1 °F 31% 30.39 in 10.0 mi Calm Calm - N/A   Clear
5:54 PM 57.9 °F - 37.0 °F 46% 30.38 in 10.0 mi Calm Calm - N/A   Clear
6:54 PM 50.0 °F - 41.0 °F 71% 30.39 in 10.0 mi Calm Calm - N/A   Clear
7:54 PM 46.0 °F 44.8 °F 39.9 °F 79% 30.40 in 10.0 mi SSW 3.5 mph - N/A   Clear
8:54 PM 42.1 °F - 37.0 °F 82% 30.40 in 10.0 mi Calm Calm - N/A   Clear
9:54 PM 42.1 °F - 37.0 °F 82% 30.40 in 10.0 mi Calm Calm - N/A   Clear
10:54 PM 37.9 °F - 35.1 °F 89% 30.40 in 10.0 mi Calm Calm - N/A   Clear
11:54 PM 37.9 °F - 34.0 °F 86% 30.39 in 10.0 mi Calm Calm - N/A   Clear